Regional Weather Roundup
Issued by NWS

Home | Current Version | Previous Version | Text Only | Print | Product List | Glossary On
Versions: 1 2 3 4 5 6 7 8 9 10 11 12 13 14 15 16 17 18 19 20 21 22 23 24 25 26 27 28 29 30 31 32 33 34 35 36 37 38 39 40 41 42 43 44 45 46 47 48 49 50
000
ASPQ40 PGUM 291012
RWRPQ
WEATHER ROUNDUP FOR THE MARIANAS AND MICRONESIA
NATIONAL WEATHER SERVICE TIYAN GU
800 PM CHST TUE JUL 29 2014

GUZ001>004-291100-
MARIANA ISLANDS-

CITY           SKY/WX    TMP DP  RH WIND       PRES   REMARKS
GUAM AIRPORT   RAIN      79  77  94 W23G30    29.79F
ANDERSEN AFB   RAIN      77  75  94 NW30G41   29.76F
ROTA AIRPORT   LGT RAIN  75  75 100 NW15G24   29.81R
TINIAN AP      MOCLDY    77  77 100 NW7       29.76F
SAIPAN AP      LGT RAIN  81  79  94 N8        29.78F

$$

PMZ161-291100-
REPUBLIC OF PALAU-

CITY           SKY/WX    TMP DP  RH WIND       PRES   REMARKS
KOROR AP       CLOUDY    82  79  89 SW6       29.84R HX  93
KOROR WSO      CLOUDY    82  75  78 SW9       29.83R

$$

PMZ171>174-291100-
FEDERATED STATES OF MICRONESIA-

CITY           SKY/WX    TMP DP  RH WIND       PRES   REMARKS
YAP AIRPORT    MOCLDY    82  75  78 SW9       29.84R
CHUUK AP       CLOUDY    82  77  83 VRB5      29.87R HX  91
POHNPEI AP     NOT AVBL
POHNPEI WSO    PTCLDY    79  77  94 SE3       29.93R
KOSRAE AP      NOT AVBL

$$

PMZ181-291100-
REPUBLIC OF THE MARSHALL ISLANDS-

CITY           SKY/WX    TMP DP  RH WIND       PRES   REMARKS
KWAJALEIN AP   PTCLDY    81  75  83 SW7       29.89S
MAJURO AP      NOT AVBL
MAJURO WSO     LGT RAIN  81  75  83 CALM      29.91R

$$



USA.gov is the U.S. government's official web portal to all federal, state and local government web resources and services.